Time,TemperatureF,DewpointF,PressureIn,WindDirection,WindDirectionDegrees,WindSpeedMPH,WindSpeedGustMPH,Humidity,HourlyPrecipIn,Conditions,Clouds,dailyrainin,SoftwareType,DateUTC
2013-04-14 00:00:00,62.4,19.0,29.52,North,5,3.0,5.0,19,0.00,,,0.00,weatherlink.com 1.10,2013-04-14 06:00:00,
2013-04-14 00:15:00,62.5,18.0,29.52,NW,325,4.0,6.0,18,0.00,,,0.00,weatherlink.com 1.10,2013-04-14 06:15:00,
2013-04-14 00:30:00,63.8,19.0,29.53,NW,304,2.0,11.0,18,0.00,,,0.00,weatherlink.com 1.10,2013-04-14 06:30:00,
2013-04-14 00:45:00,63.3,20.0,29.52,WNW,285,2.0,7.0,19,0.00,,,0.00,weatherlink.com 1.10,2013-04-14 06:45:00,
2013-04-14 01:00:00,62.3,17.0,29.53,WSW,254,5.0,7.0,17,0.00,,,0.00,weatherlink.com 1.10,2013-04-14 07:00:00,
2013-04-14 01:15:00,62.8,20.0,29.53,WNW,296,9.0,19.0,19,0.00,,,0.00,weatherlink.com 1.10,2013-04-14 07:15:00,
2013-04-14 01:30:00,62.7,20.0,29.53,WSW,248,4.0,10.0,19,0.00,,,0.00,weatherlink.com 1.10,2013-04-14 07:30:00,
2013-04-14 01:45:00,61.5,20.0,29.52,NW,319,4.0,7.0,20,0.00,,,0.00,weatherlink.com 1.10,2013-04-14 07:45:00,
2013-04-14 02:00:00,60.3,23.0,29.52,WNW,298,1.0,6.0,24,0.00,,,0.00,weatherlink.com 1.10,2013-04-14 08:00:00,
2013-04-14 02:15:00,58.9,19.0,29.52,WSW,240,2.0,4.0,21,0.00,,,0.00,weatherlink.com 1.10,2013-04-14 08:15:00,
2013-04-14 02:30:00,58.2,18.0,29.53,SW,231,2.0,4.0,21,0.00,,,0.00,weatherlink.com 1.10,2013-04-14 08:30:00,
2013-04-14 02:45:00,58.1,20.0,29.54,West,268,3.0,6.0,23,0.00,,,0.00,weatherlink.com 1.10,2013-04-14 08:45:00,
2013-04-14 03:00:00,58.9,20.0,29.54,WNW,294,4.0,7.0,22,0.00,,,0.00,weatherlink.com 1.10,2013-04-14 09:00:00,
2013-04-14 03:15:00,58.9,21.0,29.55,West,280,2.0,6.0,23,0.00,,,0.00,weatherlink.com 1.10,2013-04-14 09:15:00,
2013-04-14 03:30:00,59.1,20.0,29.55,WSW,250,1.0,6.0,22,0.00,,,0.00,weatherlink.com 1.10,2013-04-14 09:30:00,
2013-04-14 03:45:00,58.4,21.0,29.55,WSW,257,2.0,4.0,23,0.00,,,0.00,weatherlink.com 1.10,2013-04-14 09:45:00,
2013-04-14 04:00:00,57.4,20.0,29.56,West,281,1.0,3.0,23,0.00,,,0.00,weatherlink.com 1.10,2013-04-14 10:00:00,
2013-04-14 04:15:00,57.2,20.0,29.56,WNW,284,2.0,3.0,23,0.00,,,0.00,weatherlink.com 1.10,2013-04-14 10:15:00,
2013-04-14 04:30:00,57.7,20.0,29.56,NW,309,3.0,5.0,23,0.00,,,0.00,weatherlink.com 1.10,2013-04-14 10:30:00,
2013-04-14 04:45:00,57.6,21.0,29.56,WNW,298,0.0,5.0,24,0.00,,,0.00,weatherlink.com 1.10,2013-04-14 10:45:00,
2013-04-14 05:00:00,57.1,20.0,29.57,NW,310,0.0,3.0,24,0.00,,,0.00,weatherlink.com 1.10,2013-04-14 11:00:00,
2013-04-14 05:15:00,56.4,21.0,29.57,WNW,301,0.0,3.0,25,0.00,,,0.00,weatherlink.com 1.10,2013-04-14 11:15:00,
2013-04-14 05:30:00,55.7,20.0,29.57,North,1,3.0,3.0,25,0.00,,,0.00,weatherlink.com 1.10,2013-04-14 11:30:00,
2013-04-14 05:45:00,56.6,20.0,29.58,WNW,302,4.0,4.0,24,0.00,,,0.00,weatherlink.com 1.10,2013-04-14 11:45:00,
2013-04-14 06:00:00,56.9,19.0,29.58,NNW,330,1.0,3.0,23,0.00,,,0.00,weatherlink.com 1.10,2013-04-14 12:00:00,
2013-04-14 06:15:00,56.7,21.0,29.59,West,259,0.0,4.0,25,0.00,,,0.00,weatherlink.com 1.10,2013-04-14 12:15:00,
2013-04-14 06:30:00,57.8,20.0,29.59,WNW,294,0.0,15.0,23,0.00,,,0.00,weatherlink.com 1.10,2013-04-14 12:30:00,
2013-04-14 06:46:00,56.7,20.0,29.59,SW,231,1.0,4.0,24,0.00,,,0.00,weatherlink.com 1.10,2013-04-14 12:46:00,
2013-04-14 07:01:00,56.3,20.0,29.60,WSW,239,2.0,6.0,24,0.00,,,0.00,weatherlink.com 1.10,2013-04-14 13:01:00,
2013-04-14 07:16:00,56.0,21.0,29.61,West,274,2.0,5.0,26,0.00,,,0.00,weatherlink.com 1.10,2013-04-14 13:16:00,
2013-04-14 07:31:00,56.6,23.0,29.62,West,270,2.0,7.0,27,0.00,,,0.00,weatherlink.com 1.10,2013-04-14 13:31:00,
2013-04-14 09:01:00,62.4,26.0,29.64,WNW,298,7.0,10.0,25,0.00,,,0.00,weatherlink.com 1.10,2013-04-14 15:01:00,
2013-04-14 09:16:00,63.4,27.0,29.64,WSW,252,10.0,13.0,25,0.00,,,0.00,weatherlink.com 1.10,2013-04-14 15:16:00,
2013-04-14 09:31:00,63.8,26.0,29.64,West,266,8.0,17.0,24,0.00,,,0.00,weatherlink.com 1.10,2013-04-14 15:31:00,
2013-04-14 09:46:00,63.9,26.0,29.63,SW,231,7.0,17.0,24,0.00,,,0.00,weatherlink.com 1.10,2013-04-14 15:46:00,
2013-04-14 10:16:00,65.5,27.0,29.63,WNW,297,11.0,18.0,23,0.00,,,0.00,weatherlink.com 1.10,2013-04-14 16:16:00,
2013-04-14 10:31:00,66.1,26.0,29.63,NW,309,7.0,16.0,22,0.00,,,0.00,weatherlink.com 1.10,2013-04-14 16:31:00,
2013-04-14 10:46:00,66.8,25.0,29.63,WNW,294,7.0,19.0,21,0.00,,,0.00,weatherlink.com 1.10,2013-04-14 16:46:00,
2013-04-14 11:01:00,67.5,26.0,29.62,West,263,6.0,16.0,21,0.00,,,0.00,weatherlink.com 1.10,2013-04-14 17:01:00,
2013-04-14 11:16:00,67.8,26.0,29.62,WSW,255,11.0,18.0,21,0.00,,,0.00,weatherlink.com 1.10,2013-04-14 17:16:00,
2013-04-14 11:31:00,69.3,26.0,29.61,West,264,6.0,14.0,20,0.00,,,0.00,weatherlink.com 1.10,2013-04-14 17:31:00,
2013-04-14 11:46:00,69.4,25.0,29.61,West,264,11.0,17.0,19,0.00,,,0.00,weatherlink.com 1.10,2013-04-14 17:46:00,
2013-04-14 12:01:00,70.0,26.0,29.59,West,262,4.0,21.0,19,0.00,,,0.00,weatherlink.com 1.10,2013-04-14 18:01:00,
2013-04-14 12:16:00,71.2,23.0,29.59,West,264,6.0,18.0,16,0.00,,,0.00,weatherlink.com 1.10,2013-04-14 18:16:00,
2013-04-14 12:31:00,71.4,26.0,29.59,WNW,295,8.0,24.0,18,0.00,,,0.00,weatherlink.com 1.10,2013-04-14 18:31:00,
2013-04-14 12:46:00,72.2,26.0,29.58,WSW,250,6.0,23.0,18,0.00,,,0.00,weatherlink.com 1.10,2013-04-14 18:46:00,
2013-04-14 13:01:00,72.5,25.0,29.58,WNW,283,8.0,21.0,17,0.00,,,0.00,weatherlink.com 1.10,2013-04-14 19:01:00,
2013-04-14 13:16:00,73.0,24.0,29.57,WSW,255,10.0,20.0,16,0.00,,,0.00,weatherlink.com 1.10,2013-04-14 19:16:00,
2013-04-14 13:31:00,73.5,25.0,29.57,WNW,293,8.0,17.0,16,0.00,,,0.00,weatherlink.com 1.10,2013-04-14 19:31:00,
2013-04-14 13:47:00,74.4,24.0,29.56,SW,231,11.0,20.0,15,0.00,,,0.00,weatherlink.com 1.10,2013-04-14 19:47:00,
2013-04-14 14:01:00,74.8,26.0,29.55,WNW,288,7.0,17.0,16,0.00,,,0.00,weatherlink.com 1.10,2013-04-14 20:01:00,
2013-04-14 14:16:00,75.5,25.0,29.54,WNW,288,5.0,19.0,15,0.00,,,0.00,weatherlink.com 1.10,2013-04-14 20:16:00,
2013-04-14 14:31:00,76.3,24.0,29.53,WNW,294,6.0,31.0,14,0.00,,,0.00,weatherlink.com 1.10,2013-04-14 20:31:00,
2013-04-14 14:46:00,76.8,24.0,29.53,West,260,12.0,19.0,14,0.00,,,0.00,weatherlink.com 1.10,2013-04-14 20:46:00,
2013-04-14 15:01:00,76.3,24.0,29.53,NNW,329,9.0,21.0,14,0.00,,,0.00,weatherlink.com 1.10,2013-04-14 21:01:00,
2013-04-14 15:16:00,76.8,26.0,29.52,WSW,252,12.0,20.0,15,0.00,,,0.00,weatherlink.com 1.10,2013-04-14 21:16:00,
2013-04-14 15:32:00,77.2,23.0,29.51,WSW,252,13.0,17.0,13,0.00,,,0.00,weatherlink.com 1.10,2013-04-14 21:32:00,
2013-04-14 15:47:00,78.2,22.0,29.51,WSW,252,16.0,21.0,12,0.00,,,0.00,weatherlink.com 1.10,2013-04-14 21:47:00,
2013-04-14 16:02:00,78.0,23.0,29.51,WSW,249,14.0,19.0,13,0.00,,,0.00,weatherlink.com 1.10,2013-04-14 22:02:00,
2013-04-14 16:17:00,77.5,23.0,29.50,West,267,4.0,19.0,13,0.00,,,0.00,weatherlink.com 1.10,2013-04-14 22:17:00,
2013-04-14 16:32:00,78.4,20.0,29.51,West,271,12.0,23.0,11,0.00,,,0.00,weatherlink.com 1.10,2013-04-14 22:32:00,
2013-04-14 16:47:00,78.2,22.0,29.50,West,270,6.0,19.0,12,0.00,,,0.00,weatherlink.com 1.10,2013-04-14 22:47:00,
2013-04-14 17:02:00,78.4,22.0,29.50,WNW,297,9.0,25.0,12,0.00,,,0.00,weatherlink.com 1.10,2013-04-14 23:02:00,
2013-04-14 17:17:00,78.2,22.0,29.50,WNW,291,10.0,23.0,12,0.00,,,0.00,weatherlink.com 1.10,2013-04-14 23:17:00,
2013-04-14 17:32:00,78.4,24.0,29.49,West,281,11.0,21.0,13,0.00,,,0.00,weatherlink.com 1.10,2013-04-14 23:32:00,
2013-04-14 17:47:00,78.1,19.0,29.50,WNW,295,8.0,20.0,11,0.00,,,0.00,weatherlink.com 1.10,2013-04-14 23:47:00,
2013-04-14 18:02:00,77.6,21.0,29.50,NW,307,6.0,19.0,12,0.00,,,0.00,weatherlink.com 1.10,2013-04-15 00:02:00,
2013-04-14 18:17:00,77.9,21.0,29.50,WSW,252,11.0,18.0,12,0.00,,,0.00,weatherlink.com 1.10,2013-04-15 00:17:00,
2013-04-14 18:32:00,77.2,21.0,29.50,WNW,301,4.0,16.0,12,0.00,,,0.00,weatherlink.com 1.10,2013-04-15 00:32:00,
2013-04-14 18:47:00,76.5,22.0,29.50,WNW,295,5.0,17.0,13,0.00,,,0.00,weatherlink.com 1.10,2013-04-15 00:47:00,
2013-04-14 19:02:00,75.8,21.0,29.51,WNW,293,6.0,14.0,13,0.00,,,0.00,weatherlink.com 1.10,2013-04-15 01:02:00,
2013-04-14 19:17:00,75.1,23.0,29.51,West,266,3.0,14.0,14,0.00,,,0.00,weatherlink.com 1.10,2013-04-15 01:17:00,
2013-04-14 19:32:00,74.4,22.0,29.51,NW,318,7.0,16.0,14,0.00,,,0.00,weatherlink.com 1.10,2013-04-15 01:32:00,
2013-04-14 19:47:00,74.2,22.0,29.52,West,271,5.0,16.0,14,0.00,,,0.00,weatherlink.com 1.10,2013-04-15 01:47:00,
2013-04-14 20:02:00,73.4,23.0,29.52,SW,225,5.0,10.0,15,0.00,,,0.00,weatherlink.com 1.10,2013-04-15 02:02:00,
2013-04-14 20:17:00,73.0,24.0,29.53,SW,228,3.0,12.0,16,0.00,,,0.00,weatherlink.com 1.10,2013-04-15 02:17:00,
2013-04-14 20:32:00,72.4,22.0,29.53,West,278,5.0,9.0,15,0.00,,,0.00,weatherlink.com 1.10,2013-04-15 02:32:00,
2013-04-14 20:47:00,71.9,22.0,29.53,WSW,240,8.0,11.0,15,0.00,,,0.00,weatherlink.com 1.10,2013-04-15 02:47:00,
2013-04-14 21:17:00,70.8,21.0,29.55,SW,233,3.0,9.0,15,0.00,,,0.00,weatherlink.com 1.10,2013-04-15 03:17:00,
2013-04-14 21:32:00,70.1,20.0,29.56,NW,304,3.0,8.0,15,0.00,,,0.00,weatherlink.com 1.10,2013-04-15 03:32:00,
2013-04-14 21:47:00,69.3,23.0,29.56,WSW,252,4.0,6.0,17,0.00,,,0.00,weatherlink.com 1.10,2013-04-15 03:47:00,
2013-04-14 22:02:00,68.2,23.0,29.57,West,263,2.0,9.0,18,0.00,,,0.00,weatherlink.com 1.10,2013-04-15 04:02:00,
2013-04-14 22:17:00,67.0,23.0,29.57,West,281,0.0,5.0,19,0.00,,,0.00,weatherlink.com 1.10,2013-04-15 04:17:00,
2013-04-14 22:32:00,65.8,25.0,29.57,West,274,0.0,3.0,21,0.00,,,0.00,weatherlink.com 1.10,2013-04-15 04:32:00,
2013-04-14 22:47:00,65.7,21.0,29.58,SE,132,1.0,4.0,18,0.00,,,0.00,weatherlink.com 1.10,2013-04-15 04:47:00,
2013-04-14 23:02:00,66.4,20.0,29.58,SW,225,3.0,10.0,17,0.00,,,0.00,weatherlink.com 1.10,2013-04-15 05:02:00,
2013-04-14 23:17:00,65.7,21.0,29.58,West,271,0.0,7.0,18,0.00,,,0.00,weatherlink.com 1.10,2013-04-15 05:17:00,
2013-04-14 23:32:00,65.3,19.0,29.58,West,269,0.0,4.0,17,0.00,,,0.00,weatherlink.com 1.10,2013-04-15 05:32:00,
2013-04-14 23:47:00,65.0,18.0,29.58,SSW,212,1.0,3.0,16,0.00,,,0.00,weatherlink.com 1.10,2013-04-15 05:47:00,